This demonstration page uses our WeatherBlox Daily Observations layout. Learn more.

Left ArrowRight Arrow

40.92945, -100.16068

Hourly Observations for May 5, 2020

Temp ( °F °C ) Dew Point ( °F °C ) Humidity (%) Winds ( mph kmh ) Pressure ( in mb ) Visibility ( mi km ) Precip ( " mm )
12:15 am 00:15 Clear 44 6.9 42 5.7 92 92 WNW 8 13 30.14 1021 10 16.0934 0 0
12:35 am 00:35 Clear 44 6.7 41 5.2 90 90 WNW 9 15 30.14 1021 10 16.0934 0 0
12:55 am 00:55 Clear 44 6.9 41 5 88 88 WNW 12 19 30.14 1021 10 16.0934 0 0
1:15 am 01:15 Clear 46 7.5 40 4.7 83 83 WNW 14 22 30.13 1020 10 16.0934 0 0
1:35 am 01:35 Clear 45 7.3 41 4.9 85 85 WNW 15 24 30.15 1021 10 16.0934 0 0
1:55 am 01:55 Clear 45 7.1 41 5 87 87 WNW 14 22 30.14 1021 10 16.0934 0 0
2:15 am 02:15 Clear 45 7.1 41 5.1 87 87 WNW 15 24 30.14 1021 10 16.0934 0 0
2:35 am 02:35 Clear 45 7.3 41 5.1 86 86 WNW 17 28 30.15 1021 10 16.0934 0 0
2:55 am 02:55 Clear 45 7 41 5.1 88 88 WNW 13 20 30.14 1021 10 16.0934 0 0
3:15 am 03:15 Clear 44 6.6 41 5.1 90 90 WNW 10 17 30.15 1021 10 16.0934 0 0
3:35 am 03:35 Clear 44 6.5 41 5 90 90 NW 13 20 30.15 1021 10 16.0934 0 0
3:55 am 03:55 Clear 44 6.6 41 5.1 90 90 NW 14 22 30.15 1021 10 16.0934 0 0
4:15 am 04:15 Clear 43 6.2 41 5 92 92 NW 13 20 30.16 1021 10 16.0934 0 0
4:35 am 04:35 Clear 42 5.8 40 4.7 93 93 NW 12 19 30.17 1022 10 16.0934 0 0
4:55 am 04:55 Clear 42 5.5 40 4.5 93 93 WNW 10 17 30.17 1022 10 16.0934 0 0
5:15 am 05:15 Clear 42 5.3 40 4.3 93 93 WNW 12 19 30.18 1022 10 16.0934 0 0
5:35 am 05:35 Clear 41 5.1 39 4.1 93 93 WNW 12 19 30.18 1022 10 16.0934 0 0
5:55 am 05:55 Clear 41 5.1 39 4.1 93 93 WNW 14 22 30.18 1022 10 16.0934 0 0
6:15 am 06:15 Clear 41 5.1 39 4.1 93 93 WNW 14 22 30.18 1022 10 16.0934 0 0
6:35 am 06:35 Sunny 41 5.1 39 4 93 93 WNW 14 22 30.18 1022 10 16.0934 0 0
6:55 am 06:55 Sunny 41 5.2 39 4 92 92 NW 13 20 30.19 1022 10 16.0934 0 0
8:35 am 08:35 Sunny 47 8.5 42 5.5 82 82 WNW 16 26 30.2 1023 10 16.0934 0 0
8:55 am 08:55 Sunny 49 9.4 42 5.7 78 78 WNW 15 24 30.19 1022 10 16.0934 0 0
9:15 am 09:15 Sunny 51 10.5 43 6.2 75 75 WNW 17 28 30.19 1022 10 16.0934 0 0
9:35 am 09:35 Sunny 53 11.7 44 6.8 72 72 WNW 14 22 30.18 1022 10 16.0934 0 0
9:55 am 09:55 Sunny 55 12.5 45 7.2 70 70 W 14 22 30.17 1022 10 16.0934 0 0
10:15 am 10:15 Sunny 55 13 45 7.1 68 68 WNW 13 20 30.16 1021 10 16.0934 0 0
10:35 am 10:35 Sunny 57 13.9 46 7.5 66 66 WNW 13 20 30.16 1021 10 16.0934 0 0
10:55 am 10:55 Sunny 58 14.5 46 7.7 64 64 WNW 12 19 30.15 1021 10 16.0934 0 0
11:15 am 11:15 Sunny 59 15 46 7.6 61 61 NW 15 24 30.15 1021 10 16.0934 0 0
11:35 am 11:35 Sunny 60 15.3 45 7.2 59 59 NW 16 26 30.14 1021 10 16.0934 0 0
11:55 am 11:55 Sunny 60 15.7 45 7 56 56 NW 10 17 30.14 1021 10 16.0934 0 0
12:15 pm 12:15 Sunny 62 16.4 46 7.7 57 57 WNW 15 24 30.12 1020 10 16.0934 0 0
12:35 pm 12:35 Sunny 62 16.6 46 7.6 56 56 WNW 17 28 30.12 1020 10 16.0934 0 0
12:55 pm 12:55 Partly Cloudy 63 17.3 46 7.6 53 53 WNW 16 26 30.11 1019 10 16.0934 0 0
1:15 pm 13:15 Partly Cloudy 64 17.6 44 6.7 49 49 NW 16 26 30.1 1019 10 16.0934 0 0
1:35 pm 13:35 Sunny 64 17.6 42 5.6 45 45 NW 12 19 30.09 1019 10 16.0934 0 0
1:55 pm 13:55 Partly Cloudy 65 18.1 43 6 45 45 WNW 20 31 30.08 1019 10 16.0934 0 0
2:15 pm 14:15 Partly Cloudy 65 18.5 43 6.1 44 44 NW 15 24 30.07 1018 10 16.0934 0 0
2:35 pm 14:35 Partly Cloudy 65 18.2 41 5.2 43 43 WNW 15 24 30.08 1019 10 16.0934 0 0
2:55 pm 14:55 Partly Cloudy 66 19 43 6 43 43 NW 14 22 30.07 1018 10 16.0934 0 0
3:15 pm 15:15 Mostly Cloudy 67 19.3 42 5.8 41 41 W 15 24 30.06 1018 10 16.0934 0 0
3:35 pm 15:35 Cloudy 65 18.6 41 5 41 41 W 15 24 30.06 1018 10 16.0934 0 0
3:55 pm 15:55 Partly Cloudy 64 17.8 41 5.1 43 43 NW 12 19 30.07 1018 10 16.0934 0 0
4:15 pm 16:15 Mostly Cloudy 64 17.9 43 6 46 46 NNW 12 19 30.06 1018 10 16.0934 0 0
4:35 pm 16:35 Mostly Cloudy 65 18.4 42 5.6 43 43 NNW 12 19 30.06 1018 10 16.0934 0 0
4:55 pm 16:55 Mostly Cloudy 65 18.2 40 4.4 40 40 NNW 6 9 30.06 1018 10 16.0934 0 0
5:15 pm 17:15 Partly Cloudy 67 19.2 40 4.5 38 38 NNW 15 24 30.05 1018 10 16.0934 0 0
5:35 pm 17:35 Partly Cloudy 66 19.1 40 4.4 38 38 NNW 14 22 30.05 1018 10 16.0934 0 0
5:55 pm 17:55 Mostly Cloudy 65 18.2 41 5 42 42 NNW 13 20 30.06 1018 10 16.0934 0 0
6:15 pm 18:15 Mostly Cloudy 64 18 40 4.6 41 41 N 13 20 30.06 1018 10 16.0934 0 0
6:35 pm 18:35 Mostly Cloudy 66 18.7 41 5 41 41 N 10 17 30.05 1018 10 16.0934 0 0
6:55 pm 18:55 Partly Cloudy 64 17.8 41 5 43 43 NNE 7 11 30.06 1018 10 16.0934 0 0
7:15 pm 19:15 Sunny 63 17.1 43 5.9 48 48 N 6 9 30.07 1018 10 16.0934 0 0
7:35 pm 19:35 Partly Cloudy 60 15.6 42 5.3 51 51 NNE 6 9 30.08 1019 10 16.0934 0 0
7:55 pm 19:55 Cloudy 59 15 44 6.8 58 58 NNE 8 13 30.1 1019 10 16.0934 0 0
8:15 pm 20:15 Cloudy 58 14.7 41 5.1 53 53 NNE 8 13 30.1 1019 10 16.0934 0 0
8:35 pm 20:35 Mostly Cloudy 57 14 40 4.6 53 53 NNE 8 13 30.1 1019 10 16.0934 0 0
8:55 pm 20:55 Mostly Cloudy 57 13.8 39 4 52 52 NNE 12 19 30.12 1020 10 16.0934 0 0
9:15 pm 21:15 Partly Cloudy 57 13.8 38 3.2 49 49 NE 21 33 30.15 1021 10 16.0934 0 0
9:35 pm 21:35 Partly Cloudy 54 12 40 4.5 60 60 NE 15 24 30.18 1022 10 16.0934 0 0
9:55 pm 21:55 Partly Cloudy 52 11.1 41 4.8 65 65 NE 12 19 30.21 1023 10 16.0934 0 0
10:15 pm 22:15 Partly Cloudy 52 11 41 5 67 67 NE 10 17 30.22 1023 10 16.0934 0 0
10:35 pm 22:35 Mostly Cloudy 51 10.4 42 5.5 72 72 ENE 7 11 30.24 1024 10 16.0934 0 0
10:55 pm 22:55 Cloudy 51 10.4 41 5 69 69 NE 7 11 30.24 1024 10 16.0934 0 0
11:15 pm 23:15 Mostly Cloudy 51 10.3 41 5.2 71 71 Calm 30.24 1024 10 16.0934 0 0
11:35 pm 23:35 Mostly Cloudy 51 10.3 40 4.4 67 67 Calm 30.24 1024 10 16.0934 0 0
11:55 pm 23:55 Mostly Cloudy 49 9.7 40 4.7 71 71 NNE 5 7 30.25 1025 10 16.0934 0 0

Powered by AerisWeather